Location: ?????
(54.9266°N, 38.5527°E)
Time: 07:17:07
(UTC+00:00)

MSX - Visible Passes

Search period start: 16 July 2024 00:00
Search period end: 26 July 2024 00:00
Orbit: 894 x 905 km, 99.0° (Epoch: 15 July)

Date Brightness Start Highest point End Pass type
(mag) Time Alt. Az. Time Alt. Az. Time Alt. Az.
16 Jul 6.0 21:38:10 10° NE 21:41:03 14° E 21:43:56 10° ESE visible
16 Jul 4.1 23:18:09 10° NNE 23:23:54 65° ESE 23:29:37 10° S visible
17 Jul 6.0 21:40:36 10° NE 21:43:40 14° E 21:46:44 10° ESE visible
17 Jul 4.1 23:20:42 10° NNE 23:26:28 68° ESE 23:32:11 10° S visible
18 Jul 6.0 21:43:02 10° NE 21:46:17 15° E 21:49:31 10° ESE visible
18 Jul 4.0 23:23:16 10° NNE 23:29:02 70° ESE 23:34:44 10° S visible
19 Jul 6.0 21:45:29 10° NE 21:48:53 16° E 21:52:18 10° ESE visible
19 Jul 4.0 23:25:49 10° NNE 23:31:37 73° ESE 23:37:16 11° S visible
20 Jul 5.9 21:47:56 10° NE 21:51:30 16° E 21:55:03 10° ESE visible
20 Jul 4.0 23:28:23 10° NNE 23:34:11 76° ESE 23:39:49 11° SSW visible
21 Jul 5.9 21:50:24 10° NE 21:54:07 17° E 21:57:48 10° SE visible
21 Jul 4.0 23:30:56 10° NNE 23:36:45 79° ESE 23:42:22 11° SSW visible
22 Jul 5.9 21:52:53 10° NE 21:56:43 18° E 22:00:33 10° SE visible
22 Jul 3.9 23:33:30 10° NNE 23:39:20 82° ESE 23:44:54 11° SSW visible
23 Jul 5.8 21:55:22 10° NE 21:59:20 19° E 22:03:16 10° SE visible
23 Jul 3.9 23:36:04 10° NNE 23:41:54 84° ESE 23:47:27 11° SSW visible
24 Jul 5.8 21:57:51 10° NE 22:01:57 19° E 22:06:00 10° SE visible
24 Jul 3.9 23:38:38 10° NNE 23:44:28 87° ESE 23:49:59 11° SSW visible
25 Jul 5.7 22:00:21 10° NE 22:04:32 20° E 22:08:44 10° SE visible
25 Jul 3.9 23:41:12 10° NNE 23:47:02 90° WNW 23:52:31 12° SSW visible
